Temp
10 10 10 10 10 10 10 9 9 10 10 10 10 10 10 10 10 11 11 11 10 10 10 9 9 8 8 8 8 8 8 8 8 8 7 7 7 7 6 6 6 6 6 6 6 6 6 6 6
10 10 10 10 9 9 9 10 10 11 11 10 10 10 10 10 10 10 10 10 10 10 9 9 8 8 8 8 8 7 8 7 7 7 7 7 7 7 6 6 6 5 5 5 5 5 5 5 5
10 10 9 10 9 9 9 10 11 11 11 10 9 10 10 10 10 10 10 10 9 9 9 9 8 8 8 8 8 7 7 7 7 7 7 7 6 6 6 6 5 5 5 5 5 5 5 5 5
9 9 9 9 9 8 9 9 10 10 10 10 9 10 9 10 10 9 10 9 9 9 9 9 8 8 8 8 7 7 7 7 6 6 6 6 6 6 6 5 6 5 5 5 5 5 5 4 5
9 9 9 9 8 9 9 9 9 9 9 9 9 10 10 9 9 9 9 9 8 8 8 8 8 8 7 6 6 6 6 6 6 6 6 6 5 5 5 5 5 5 5 5 5 5 5 4 4
8 8 8 8 8 8 9 9 9 9 9 9 10 10 9 9 9 8 8 8 8 8 8 7 7 6 6 5 5 5 5 5 6 5 5 5 5 5 5 5 5 5 5 5 4 4 4 4 4
8 8 8 8 8 8 8 9 9 9 9 9 9 9 9 8 8 7 7 7 6 6 6 6 6 6 5 4 4 4 4 4 4 4 5 5 4 4 4 4 4 4 4 4 4 4 4 4 4
7 8 8 8 8 8 8 8 8 8 9 9 9 9 8 8 7 7 7 6 6 6 6 6 5 5 5 4 4 3 3 3 3 3 3 3 3 3 4 4 3 4 3 4 4 4 3 3 3
8 7 7 7 8 8 8 8 8 8 8 8 8 7 7 7 7 7 6 6 6 5 5 4 3 3 3 3 3 3 2 2 2 2 3 3 3 3 3 3 2 3 3 3 3 3 3 3 3
7 7 7 7 7 8 8 7 7 7 8 7 7 7 7 6 6 6 5 5 5 4 4 3 2 2 2 2 2 2 1 1 1 2 2 2 2 2 2 2 2 2 1 1 2 2 2 2 2
7 7 7 7 7 8 8 8 7 7 7 7 6 6 6 5 4 4 4 4 4 3 2 2 1 0 1 0 0 0 0 0 0 0 0 0 1 1 1 1 1 0 0 0 0 1 1 1 1
7 6 7 7 7 8 8 8 7 7 7 5 5 5 5 5 4 3 3 2 2 2 1 -0 -0 -0 -0 -0 -0 -0 -0 -0 -0 -1 -1 -1 -1 -1 -1 -1 -1 -1 -1 -1 -0 -0 -0 -0 -0
7 6 7 7 7 7 7 7 7 6 6 4 5 5 5 4 3 2 1 0 0 -0 0 -1 -1 -1 -1 -1 -1 -1 -1 -1 -1 -1 -2 -2 -2 -2 -2 -2 -2 -2 -2 -1 -1 -1 -1 -1 -1
6 7 7 7 7 7 6 6 6 5 4 4 4 4 3 3 2 2 1 0 0 -0 -0 -0 -1 -1 -1 -2 -2 -2 -2 -1 -1 -2 -2 -2 -3 -3 -3 -3 -3 -3 -3 -2 -2 -2 -2 -2 -2
6 6 6 6 6 6 5 5 5 4 4 3 3 3 3 2 2 2 2 0 -0 0 -1 -1 -1 -1 -1 -2 -2 -2 -2 -2 -2 -2 -2 -3 -3 -3 -4 -4 -4 -3 -3 -3 -3 -3 -3 -2 -3
6 6 5 5 5 5 5 4 3 3 3 2 2 2 2 2 2 1 -0 0 -0 0 -1 -0 -2 -2 -2 -3 -2 -3 -3 -3 -3 -3 -3 -3 -3 -4 -4 -4 -4 -4 -4 -4 -3 -3 -3 -3 -3
6 6 5 5 5 4 4 3 2 2 1 1 1 2 2 1 -0 -0 -0 -1 -1 -0 -0 -1 -1 -2 -2 -3 -3 -2 -2 -3 -4 -5 -5 -4 -4 -4 -4 -4 -4 -4 -4 -4 -4 -4 -4 -4 -4
7 6 5 5 4 4 4 2 1 1 1 1 1 1 1 0 -0 -1 -1 -1 -1 -1 -1 -1 -2 -2 -3 -2 -2 -2 -2 -3 -4 -4 -4 -4 -5 -5 -4 -5 -4 -5 -5 -4 -5 -5 -5 -5 -5
6 6 5 3 3 2 2 1 1 1 1 1 0 -0 0 0 -1 -1 -2 -2 -2 -2 -2 -3 -3 -2 -2 -2 -2 -3 -3 -3 -3 -4 -4 -4 -5 -5 -5 -5 -4 -5 -5 -5 -5 -6 -5 -5 -5
5 5 4 3 2 1 1 1 0 0 0 0 -0 -0 -1 -1 -2 -2 -2 -2 -2 -2 -2 -3 -3 -3 -3 -3 -4 -4 -4 -4 -4 -4 -4 -5 -5 -4 -4 -4 -4 -5 -5 -6 -6 -6 -6 -6 -6
4 4 4 3 1 0 -0 -0 -0 -0 -1 -1 -1 -1 -1 -2 -2 -2 -3 -3 -3 -3 -3 -3 -3 -3 -4 -4 -4 -4 -4 -4 -4 -4 -5 -5 -5 -5 -5 -5 -5 -5 -5 -5 -6 -6 -6 -7 -7
3 3 2 2 1 -0 -0 1 -1 -1 -1 -2 -2 -2 -2 -2 -3 -3 -3 -3 -3 -3 -3 -3 -3 -3 -3 -3 -4 -4 -4 -4 -5 -5 -5 -5 -5 -6 -6 -6 -6 -6 -6 -6 -6 -6 -7 -7 -7
3 2 2 1 1 0 -1 -1 -2 -1 -2 -2 -2 -2 -3 -3 -3 -3 -3 -2 -2 -2 -2 -2 -3 -3 -3 -3 -4 -4 -4 -5 -5 -5 -6 -6 -6 -6 -7 -7 -8 -8 -8 -9 -8 -8 -7 -8 -8
2 1 1 0 0 0 -2 -1 -2 -2 -2 -2 -2 -2 -3 -3 -3 -3 -2 -2 -2 -2 -2 -3 -3 -3 -3 -4 -4 -5 -5 -5 -5 -6 -6 -6 -7 -7 -7 -7 -7 -8 -8 -9 -10 -10 -10 -9 -9
1 1 -0 0 0 -0 -2 -2 -2 -2 -2 -2 -2 -2 -3 -2 -2 -2 -2 -2 -2 -2 -2 -2 -3 -3 -3 -4 -5 -5 -5 -5 -5 -6 -6 -6 -6 -7 -6 -7 -7 -7 -8 -9 -9 -10 -10 -10 -10
1 1 2 1 0 -1 -2 -2 -2 -2 -3 -2 -3 -3 -3 -2 -2 -2 -2 -2 -2 -2 -2 -2 -3 -3 -4 -4 -3 -4 -5 -5 -6 -6 -6 -6 -7 -7 -7 -7 -7 -8 -8 -8 -8 -9 -9 -9 -10
1 0 1 -0 -2 -2 -3 -3 -2 -3 -3 -3 -3 -3 -2 -2 -2 -2 -2 -2 -2 -2 -2 -3 -3 -4 -3 -3 -3 -4 -6 -6 -6 -6 -6 -7 -7 -8 -8 -8 -8 -8 -8 -8 -9 -9 -9 -10 -10
1 1 -0 0 -2 -1 -3 -3 -2 -3 -3 -3 -3 -3 -2 -2 -2 -2 -2 -2 -2 -2 -3 -3 -4 -4 -4 -4 -4 -5 -5 -6 -6 -7 -7 -8 -9 -9 -10 -10 -10 -10 -9 -9 -10 -10 -10 -10 -10
0 -0 0 0 -1 -1 -2 -2 -3 -3 -3 -3 -3 -3 -3 -2 -2 -2 -2 -2 -2 -3 -3 -3 -4 -4 -5 -5 -5 -6 -6 -7 -7 -8 -8 -9 -10 -11 -11 -11 -11 -11 -11 -11 -11 -11 -11 -10 -10
-0 -0 -0 1 -3 -2 -3 -3 -3 -3 -3 -3 -3 -3 -3 -2 -2 -2 -2 -2 -2 -2 -3 -3 -4 -5 -5 -6 -6 -7 -7 -7 -8 -9 -10 -11 -12 -12 -13 -13 -13 -13 -12 -12 -12 -12 -12 -11 -11
Height
3163 3163 3163 3164 3168 3165 3165 3166 3165 3165 3166 3166 3165 3166 3166 3165 3165 3169 3165 3164 3164 3165 3165 3166 3168 3171 3171 3171 3173 3171 3172 3173 3172 3171 3172 3171 3171 3171 3170 3170 3170 3171 3171 3171 3170 3169 3170 3171 3171
3163 3162 3163 3163 3165 3164 3166 3165 3164 3163 3164 3165 3165 3165 3165 3165 3165 3165 3165 3164 3164 3165 3166 3168 3170 3170 3171 3171 3171 3171 3170 3171 3170 3170 3171 3171 3170 3170 3169 3169 3169 3169 3169 3169 3169 3169 3168 3169 3169
3161 3161 3163 3163 3163 3165 3165 3163 3162 3161 3161 3163 3166 3166 3166 3166 3165 3165 3164 3164 3165 3165 3165 3166 3167 3169 3169 3169 3170 3170 3170 3170 3169 3169 3169 3169 3169 3169 3168 3167 3167 3168 3168 3168 3168 3169 3169 3168 3168
3160 3161 3163 3163 3164 3164 3164 3163 3161 3160 3161 3163 3165 3166 3166 3166 3165 3165 3165 3164 3165 3165 3165 3166 3167 3167 3168 3168 3167 3167 3167 3167 3167 3167 3167 3167 3167 3167 3167 3166 3165 3166 3166 3166 3167 3167 3167 3167 3167
3158 3159 3160 3162 3164 3164 3164 3163 3162 3162 3163 3164 3164 3164 3165 3165 3165 3164 3164 3164 3165 3165 3165 3166 3167 3166 3166 3166 3165 3165 3165 3165 3165 3165 3165 3165 3165 3165 3165 3164 3164 3163 3164 3164 3164 3164 3164 3165 3165
3157 3158 3159 3161 3162 3163 3164 3164 3164 3163 3164 3164 3164 3165 3165 3165 3164 3164 3164 3165 3165 3165 3165 3165 3165 3165 3165 3164 3163 3163 3163 3163 3163 3162 3162 3162 3162 3162 3162 3162 3162 3161 3161 3161 3162 3162 3162 3162 3162
3155 3156 3158 3159 3161 3163 3164 3164 3164 3164 3164 3164 3164 3164 3164 3163 3163 3163 3164 3164 3164 3164 3164 3163 3162 3161 3160 3159 3159 3159 3160 3161 3161 3160 3160 3160 3160 3160 3160 3160 3159 3159 3159 3159 3159 3159 3160 3160 3159
3154 3156 3157 3158 3160 3162 3162 3163 3163 3164 3164 3164 3164 3163 3163 3162 3163 3162 3163 3163 3164 3163 3162 3161 3160 3159 3157 3156 3155 3155 3156 3156 3156 3157 3157 3157 3157 3157 3157 3156 3156 3156 3156 3156 3156 3156 3156 3156 3157
3153 3156 3156 3158 3159 3161 3160 3161 3162 3162 3162 3162 3163 3163 3163 3162 3162 3162 3162 3162 3161 3161 3159 3158 3157 3156 3154 3153 3152 3151 3151 3151 3151 3152 3152 3153 3153 3153 3153 3153 3153 3152 3152 3152 3152 3152 3153 3153 3153
3153 3155 3157 3158 3158 3158 3158 3158 3159 3161 3161 3161 3162 3161 3161 3160 3160 3161 3160 3159 3158 3157 3156 3155 3154 3153 3152 3150 3148 3147 3147 3147 3147 3147 3148 3149 3149 3149 3149 3149 3148 3148 3148 3148 3148 3148 3148 3148 3149
3152 3154 3155 3156 3156 3156 3154 3155 3157 3158 3159 3159 3159 3160 3160 3159 3159 3158 3158 3157 3156 3154 3154 3153 3152 3151 3150 3149 3147 3146 3145 3144 3143 3143 3144 3145 3144 3145 3145 3144 3144 3143 3143 3143 3144 3144 3144 3144 3145
3152 3152 3153 3153 3154 3154 3153 3153 3154 3156 3157 3158 3159 3159 3159 3157 3156 3156 3155 3155 3154 3152 3151 3150 3150 3149 3147 3147 3146 3144 3142 3141 3141 3140 3141 3141 3141 3140 3140 3140 3141 3140 3140 3140 3139 3139 3139 3139 3140
3150 3151 3151 3151 3152 3152 3152 3152 3154 3154 3155 3157 3159 3159 3157 3156 3155 3154 3154 3153 3151 3150 3148 3147 3145 3143 3142 3143 3142 3141 3139 3137 3136 3136 3135 3136 3136 3136 3136 3136 3136 3136 3136 3136 3135 3135 3135 3135 3135
3149 3149 3149 3149 3150 3150 3151 3151 3153 3154 3155 3156 3157 3156 3155 3155 3154 3152 3151 3149 3148 3146 3144 3141 3139 3134 3136 3137 3137 3136 3135 3133 3132 3131 3130 3130 3130 3130 3130 3130 3130 3131 3130 3130 3130 3130 3129 3129 3129
3148 3149 3148 3148 3148 3149 3150 3152 3152 3153 3153 3154 3155 3155 3154 3153 3151 3149 3148 3147 3145 3143 3140 3138 3136 3135 3133 3132 3132 3132 3130 3128 3127 3127 3126 3125 3124 3124 3124 3124 3125 3126 3124 3124 3124 3124 3124 3123 3123
3148 3148 3148 3147 3148 3149 3151 3151 3151 3151 3152 3153 3153 3153 3152 3150 3148 3146 3145 3144 3141 3139 3137 3134 3132 3130 3131 3129 3128 3127 3126 3124 3123 3122 3121 3120 3118 3118 3117 3117 3118 3118 3117 3116 3116 3116 3117 3117 3116
3147 3147 3146 3147 3147 3148 3149 3148 3149 3149 3150 3151 3151 3151 3149 3147 3145 3143 3142 3140 3139 3135 3132 3128 3126 3124 3126 3124 3124 3122 3120 3117 3117 3115 3114 3113 3112 3112 3110 3110 3109 3110 3109 3107 3107 3106 3107 3107 3106
3145 3145 3145 3145 3146 3145 3146 3146 3147 3148 3149 3149 3149 3148 3146 3144 3142 3139 3137 3135 3133 3131 3128 3125 3125 3124 3121 3120 3118 3116 3114 3111 3109 3108 3107 3105 3103 3103 3101 3099 3099 3099 3098 3097 3098 3098 3096 3098 3098
3143 3143 3143 3143 3144 3145 3146 3146 3147 3148 3148 3148 3147 3146 3144 3142 3139 3137 3134 3132 3129 3127 3125 3124 3122 3120 3118 3116 3113 3110 3108 3105 3103 3101 3099 3097 3095 3093 3090 3089 3088 3088 3087 3087 3087 3087 3087 3089 3089
3141 3141 3142 3143 3143 3146 3146 3147 3147 3148 3148 3147 3146 3144 3141 3139 3137 3134 3131 3128 3126 3123 3121 3119 3117 3115 3112 3109 3105 3102 3098 3096 3094 3092 3089 3086 3083 3081 3079 3078 3077 3077 3076 3076 3076 3076 3077 3077 3078
3140 3141 3140 3142 3143 3145 3146 3147 3146 3147 3147 3146 3145 3142 3140 3138 3135 3132 3129 3127 3124 3121 3119 3116 3113 3110 3106 3102 3097 3093 3089 3086 3083 3081 3077 3075 3072 3069 3066 3065 3063 3063 3063 3063 3064 3066 3065 3066 3067
3139 3139 3139 3140 3142 3145 3146 3147 3145 3145 3146 3145 3143 3141 3139 3136 3133 3130 3127 3126 3123 3120 3116 3112 3109 3104 3100 3095 3090 3085 3080 3075 3072 3067 3064 3060 3057 3054 3051 3049 3048 3047 3047 3048 3050 3053 3053 3055 3055
3137 3138 3140 3141 3142 3143 3145 3145 3143 3144 3145 3145 3142 3140 3137 3134 3131 3129 3126 3123 3120 3116 3112 3107 3102 3098 3092 3087 3081 3075 3070 3064 3059 3054 3049 3045 3042 3038 3035 3032 3031 3030 3030 3030 3032 3036 3037 3038 3042
3135 3137 3139 3141 3143 3144 3143 3143 3143 3143 3144 3143 3141 3138 3135 3132 3130 3127 3124 3120 3116 3111 3106 3101 3096 3091 3084 3078 3072 3065 3058 3051 3044 3039 3033 3028 3025 3022 3019 3016 3014 3013 3013 3014 3017 3020 3020 3023 3025
3134 3136 3140 3143 3142 3142 3142 3142 3141 3142 3142 3141 3138 3136 3133 3130 3127 3124 3120 3116 3111 3106 3100 3095 3089 3083 3076 3069 3061 3053 3045 3037 3031 3025 3019 3015 3011 3008 3005 3002 2999 2997 2997 2998 3000 3003 3005 3008 3011
3131 3133 3134 3134 3137 3141 3140 3140 3140 3140 3141 3139 3136 3134 3132 3128 3124 3120 3115 3111 3106 3100 3094 3087 3081 3074 3066 3057 3049 3041 3034 3027 3020 3013 3007 3001 2997 2992 2989 2986 2984 2983 2982 2983 2984 2986 2990 2993 2996
3129 3131 3132 3132 3136 3137 3138 3138 3138 3139 3140 3137 3135 3133 3129 3125 3121 3116 3112 3106 3100 3094 3087 3081 3073 3066 3057 3048 3040 3032 3024 3017 3009 3002 2995 2989 2983 2978 2973 2970 2969 2968 2967 2967 2968 2970 2974 2978 2982
3126 3128 3130 3130 3133 3134 3136 3136 3137 3138 3137 3135 3133 3130 3126 3122 3118 3113 3107 3101 3096 3090 3083 3075 3066 3057 3049 3040 3031 3022 3014 3006 2998 2990 2982 2976 2969 2964 2959 2955 2953 2952 2952 2953 2954 2955 2959 2963 2968
3124 3124 3125 3127 3128 3128 3132 3135 3135 3136 3135 3134 3131 3128 3124 3119 3115 3109 3104 3098 3092 3085 3078 3069 3059 3049 3041 3032 3023 3014 3005 2996 2987 2979 2970 2963 2956 2951 2947 2943 2940 2939 2939 2940 2941 2942 2945 2949 2955
3120 3121 3122 3123 3126 3126 3127 3134 3133 3134 3134 3132 3130 3127 3123 3118 3112 3106 3101 3095 3089 3081 3072 3062 3052 3042 3033 3024 3016 3006 2996 2986 2976 2967 2959 2952 2945 2940 2935 2932 2930 2928 2928 2928 2930 2931 2934 2938 2942
Wind_Speed
11 12 11 10 4 4 9 6 9 6 3 5 3 3 2 3 3 2 3 3 7 9 11 13 13 15 14 12 12 9 8 9 6 5 4 3 2 3 4 4 5 5 6 7 8 8 7 7 6
12 12 11 8 4 4 5 8 11 5 5 3 4 1 1 0 2 3 4 2 3 6 8 10 11 13 14 14 12 12 10 11 7 6 5 5 4 4 3 3 4 5 5 5 6 7 8 7 7
12 12 9 2 10 7 5 12 11 4 10 5 1 1 0 2 4 4 3 2 4 7 10 13 14 15 15 14 13 12 11 10 9 8 8 8 7 6 5 2 1 1 3 5 6 6 7 7 7
11 10 5 3 9 9 11 14 12 11 7 5 2 1 6 5 1 3 3 5 6 6 8 10 13 15 15 14 14 13 13 12 12 12 12 11 11 9 7 6 4 1 2 5 7 8 7 8 7
11 9 3 4 7 7 9 13 15 11 8 4 2 6 10 7 4 2 7 8 7 6 7 8 11 13 14 13 15 15 15 15 15 15 15 14 13 12 11 9 8 6 4 5 5 8 10 9 9
9 7 3 3 7 6 8 9 11 10 12 10 7 8 7 8 6 7 5 5 5 7 9 11 12 13 13 13 16 16 16 18 17 17 16 16 15 14 13 13 12 10 9 7 5 6 6 7 9
8 5 2 2 7 8 9 4 5 8 10 7 5 6 6 5 7 4 5 5 5 6 9 11 13 14 15 15 17 17 17 18 18 18 18 17 17 16 16 15 13 12 11 11 9 8 8 9 8
6 4 1 3 6 5 7 8 4 7 8 5 6 6 6 5 3 4 5 7 8 10 12 14 15 15 16 17 17 17 17 17 17 18 18 18 18 18 17 16 15 14 14 13 13 12 11 12 12
4 1 3 5 5 2 7 8 4 6 6 4 5 4 4 2 4 4 5 9 10 12 13 13 13 13 13 13 14 15 15 14 14 16 17 18 18 18 18 17 16 16 16 15 16 15 13 13 13
1 5 8 6 6 5 10 9 5 3 2 2 2 2 3 7 5 5 6 8 9 10 9 11 11 8 6 7 6 7 10 11 12 14 16 17 18 19 19 20 19 18 17 16 17 16 15 14 14
1 3 2 3 3 4 9 6 6 8 7 5 6 5 4 6 6 7 7 7 8 9 7 7 8 5 6 4 2 8 6 6 9 12 14 16 18 19 20 20 20 19 17 16 17 18 17 16 16
2 3 2 3 3 5 5 4 8 10 7 4 5 5 1 1 4 6 8 9 11 11 12 8 11 8 4 10 10 10 6 5 8 11 15 17 18 19 19 19 19 19 19 18 18 19 19 18 18
4 3 7 6 6 4 5 7 9 9 7 5 1 3 6 5 8 11 10 13 9 12 13 9 14 13 9 8 14 15 9 8 9 11 14 17 19 20 20 21 21 21 21 22 22 20 20 23 25
4 5 7 7 6 6 8 11 10 6 4 2 2 6 8 9 13 13 13 15 15 15 10 22 19 9 9 10 15 13 13 11 12 13 15 18 20 22 22 23 23 23 24 25 25 25 25 24 25
1 1 2 4 7 9 11 8 7 5 5 4 2 6 8 12 14 18 18 14 14 18 15 17 24 17 12 13 21 19 14 14 14 16 18 18 20 22 25 26 27 26 28 30 29 29 29 31 31
5 5 6 6 7 7 7 4 5 6 4 2 5 8 10 14 23 17 14 17 23 20 25 27 19 19 18 20 19 18 21 19 18 18 20 23 24 25 27 29 30 30 32 34 35 36 36 35 38
9 6 6 5 7 8 8 7 7 6 4 4 6 9 14 18 16 17 20 20 19 17 14 12 16 21 21 15 20 26 26 23 20 22 22 24 25 28 30 32 34 34 36 37 38 38 37 36 33
9 5 3 4 2 1 5 9 10 7 5 5 7 15 15 15 16 16 15 14 13 11 10 8 7 19 22 24 23 22 22 20 19 25 29 34 29 32 31 35 39 38 35 37 35 39 32 33 35
2 1 2 3 5 2 7 10 8 6 4 6 9 10 13 13 12 14 15 15 16 16 14 10 9 16 19 20 21 23 24 24 24 25 28 30 31 34 39 42 45 44 44 40 42 41 40 40 34
4 5 4 5 3 2 9 8 7 2 2 7 8 11 13 15 17 18 19 20 21 21 22 22 22 22 24 26 27 29 30 30 32 32 33 35 37 38 40 41 43 44 44 44 43 42 43 46 44
5 5 6 5 8 9 9 5 4 3 6 6 9 11 15 16 16 19 19 20 21 22 24 25 25 26 27 29 31 33 35 37 38 38 39 39 41 43 44 44 45 45 45 44 44 40 43 41 41
7 5 5 2 6 3 7 2 5 4 4 6 8 12 16 19 20 18 18 19 22 24 25 27 28 30 31 33 36 38 40 42 42 44 45 45 46 46 48 48 48 48 47 49 49 46 48 47 46
7 6 3 5 6 5 3 3 3 5 4 6 9 13 17 20 18 18 21 23 24 26 28 30 32 33 34 36 39 41 43 45 48 48 49 49 50 50 50 49 50 51 52 54 49 48 52 53 52
8 9 8 8 5 3 2 1 3 4 4 6 10 13 16 16 19 20 22 25 27 29 31 33 34 34 36 39 41 42 45 46 46 44 45 45 44 43 43 44 45 47 48 48 51 52 51 55 57
10 16 5 3 3 1 1 2 3 3 4 9 11 12 15 19 21 23 25 27 29 31 33 34 35 35 37 41 40 41 42 41 40 40 40 41 42 43 44 45 45 44 44 45 46 54 57 60 58
14 15 4 4 3 2 4 3 2 3 4 8 8 13 16 19 22 24 27 29 31 33 34 35 37 40 42 42 42 39 37 38 40 41 41 40 43 44 44 44 44 45 45 45 44 43 46 49 48
15 13 9 4 6 3 2 4 5 4 4 5 8 12 18 22 25 27 28 30 32 34 35 38 40 42 38 37 35 34 36 38 40 42 43 44 43 43 42 41 41 41 42 42 42 43 44 47 47
12 14 5 6 5 3 2 4 4 4 2 5 10 16 21 25 27 27 28 30 32 34 37 40 42 38 37 39 37 38 40 40 41 41 41 41 43 42 40 39 37 36 37 39 38 40 41 42 43
12 16 7 7 4 4 4 2 4 2 3 9 13 19 23 27 28 28 29 30 32 35 38 44 41 37 37 37 37 41 42 41 41 42 42 41 39 38 37 36 35 35 35 35 35 35 37 39 40
16 16 14 5 5 5 5 4 7 2 4 8 14 19 23 26 26 27 29 30 32 36 39 43 45 41 39 39 39 44 46 43 42 40 37 34 33 32 32 31 31 32 31 29 31 32 33 34 37
Wind_Direction
291 296 309 324 336 69 55 12 358 343 284 358 277 261 298 326 13 323 347 285 220 222 215 216 222 231 220 221 232 231 257 259 238 239 258 266 269 285 296 304 310 316 328 331 330 322 314 305 291
292 298 307 330 47 66 33 19 4 318 257 343 87 268 296 179 123 78 24 14 210 225 217 225 234 234 229 235 238 245 240 243 241 241 238 239 241 247 263 291 306 311 324 336 344 337 327 319 301
287 293 306 37 68 63 40 27 19 305 217 156 47 191 119 187 131 78 54 219 229 210 207 214 219 224 229 236 243 250 252 254 257 251 244 238 228 222 221 215 261 344 4 7 2 344 338 333 317
279 283 307 99 90 60 53 45 45 51 134 135 151 75 8 33 92 68 172 223 232 235 235 233 230 233 238 243 247 251 256 259 253 246 242 239 230 221 215 205 191 180 21 20 9 4 341 333 319
271 276 252 142 103 72 53 55 52 56 62 57 14 0 354 5 329 247 214 223 239 248 257 257 258 261 259 256 257 257 261 261 257 250 245 243 236 227 220 217 206 211 260 304 337 353 359 345 318
259 250 202 152 133 90 56 58 46 65 43 28 16 10 3 322 312 290 253 260 272 283 283 276 274 273 272 271 268 269 266 263 259 254 251 249 245 239 234 227 223 221 229 246 272 300 318 335 335
240 241 228 203 146 96 51 54 36 41 20 12 23 2 343 300 304 351 20 2 333 300 281 270 263 260 258 259 264 270 273 271 268 260 256 255 250 245 243 239 235 237 241 248 256 274 291 300 308
237 247 341 141 139 131 31 31 19 10 4 353 337 333 355 26 9 10 4 358 335 305 289 281 278 272 266 262 260 262 264 264 266 266 265 261 257 253 250 248 246 248 251 258 261 265 274 288 291
266 322 80 88 97 25 331 346 333 328 328 311 336 0 26 56 93 51 30 1 339 325 309 304 296 286 284 278 269 261 259 263 266 266 265 262 259 258 259 258 256 255 257 260 263 263 268 279 283
351 75 73 25 341 329 303 294 258 256 243 269 41 346 109 121 97 64 26 3 339 327 318 320 309 300 295 289 279 265 261 257 259 264 266 264 262 261 258 257 257 256 257 259 262 264 264 270 276
15 59 22 0 344 332 295 248 229 228 227 231 170 141 135 107 81 62 31 357 344 334 319 308 329 312 358 6 6 337 333 296 275 268 263 260 257 257 255 255 254 252 252 255 262 266 269 272 276
117 212 232 296 310 318 300 245 223 233 223 196 189 193 206 91 61 23 1 352 339 333 325 316 313 277 317 322 318 317 311 294 304 294 279 270 264 261 261 261 260 259 257 256 258 263 267 271 276
180 224 260 285 296 280 239 235 220 219 204 171 162 345 346 353 4 359 353 342 329 329 293 284 290 258 302 294 313 293 290 295 287 275 271 270 268 264 261 261 261 259 261 265 264 262 267 276 278
221 280 271 276 266 230 217 231 224 196 188 139 311 329 337 347 346 340 335 332 303 298 319 299 282 214 243 270 303 295 284 283 294 277 264 262 261 260 258 258 257 259 261 262 262 267 274 278 277
300 308 196 213 206 200 208 202 192 196 167 166 274 309 319 322 326 318 305 310 315 303 287 301 296 283 251 296 303 283 279 276 272 273 271 266 258 257 258 258 260 261 263 263 264 268 273 274 275
187 205 190 198 203 200 206 210 184 176 177 217 290 294 310 311 312 307 316 309 308 293 297 292 287 282 277 299 291 294 291 282 276 271 272 267 261 258 257 258 259 260 263 267 269 268 271 275 275
196 199 158 109 215 226 233 185 177 173 165 251 276 286 300 313 311 308 302 301 297 302 296 312 229 258 298 288 289 294 290 287 276 274 281 280 272 273 271 266 267 268 271 272 275 274 274 279 275
209 193 129 150 42 314 236 184 152 163 195 245 280 303 314 315 313 319 326 336 347 346 342 325 286 261 298 303 300 298 299 303 293 271 274 285 272 269 273 270 258 264 272 260 268 266 283 259 276
221 300 128 128 129 139 143 154 164 188 238 297 315 329 336 341 348 0 2 0 358 356 1 349 313 294 302 303 304 303 306 301 295 284 282 281 279 276 268 265 266 262 259 265 265 268 267 261 272
306 300 199 178 194 151 149 159 161 165 305 316 325 339 350 358 -0 359 359 357 351 350 348 345 340 332 323 318 313 310 306 302 298 294 289 284 280 276 273 271 272 271 268 265 263 264 261 263 262
259 246 220 218 165 141 158 180 183 266 291 319 343 350 358 359 356 356 353 350 348 347 341 336 330 324 319 314 308 304 301 298 295 292 288 283 282 279 277 274 271 268 267 265 260 259 262 256 259
211 187 187 228 180 159 192 220 225 247 267 331 341 351 354 352 348 346 349 347 339 336 333 326 321 317 314 308 305 304 302 300 297 292 289 286 283 280 278 276 274 269 265 263 258 256 256 254 255
192 160 159 154 185 160 183 208 216 239 263 319 338 347 345 342 343 346 341 337 335 330 325 321 320 318 313 310 307 305 301 298 294 290 287 285 282 279 277 273 271 267 262 259 256 250 254 255 251
173 173 161 171 185 208 224 242 206 223 278 324 334 335 336 346 344 341 336 332 330 327 324 321 320 319 315 313 308 304 302 300 295 292 287 284 280 278 276 275 273 269 265 262 254 248 247 251 254
189 175 133 198 206 280 180 293 233 219 303 333 332 342 350 346 342 335 333 332 331 327 326 325 322 318 316 316 311 307 307 303 299 296 290 286 284 281 280 274 268 264 262 260 257 250 254 254 253
188 184 183 205 191 147 211 225 216 228 302 334 357 354 354 351 343 338 337 334 331 331 329 326 323 322 321 320 318 312 309 308 304 300 297 292 289 289 285 279 271 265 261 259 258 253 250 251 253
201 215 226 135 137 155 211 223 237 230 303 340 347 354 350 348 343 342 339 336 335 333 331 329 328 327 327 332 328 319 312 309 306 303 300 296 293 291 287 282 276 270 263 257 252 251 251 251 249
211 208 173 186 156 199 224 253 204 218 298 348 350 349 348 345 344 343 340 340 338 335 334 333 330 328 329 328 329 326 320 316 312 307 303 297 295 293 289 284 278 270 262 256 251 247 246 246 245
201 197 191 178 169 154 155 209 172 162 0 348 344 344 345 346 345 344 343 342 339 339 338 338 335 334 331 330 330 334 327 320 314 311 306 301 296 291 288 284 279 274 267 260 254 248 244 241 240
213 209 210 209 204 168 132 141 162 175 325 329 335 343 344 345 347 346 345 343 343 343 343 345 345 339 336 332 329 332 330 325 319 317 313 308 302 296 290 286 283 279 274 267 261 253 245 240 237